Time,TemperatureF,DewpointF,PressureIn,WindDirection,WindDirectionDegrees,WindSpeedMPH,WindSpeedGustMPH,Humidity,HourlyPrecipIn,Conditions,Clouds,dailyrainin,SoftwareType,DateUTC
2013-11-25 00:00:00,19.0,13.9,30.23,West,270,2.2,-999.0,80,-99.99,,,0.00,Acu-Link.com,2013-11-25 05:00:00,
2013-11-25 00:15:00,18.9,13.8,30.23,West,270,1.7,-999.0,80,-99.99,,,0.00,Acu-Link.com,2013-11-25 05:15:00,
2013-11-25 00:30:00,18.3,13.2,30.23,WNW,292,2.2,-999.0,80,-99.99,,,0.00,Acu-Link.com,2013-11-25 05:30:00,
2013-11-25 00:46:00,18.3,13.5,30.22,WNW,292,3.7,-999.0,81,-99.99,,,0.00,Acu-Link.com,2013-11-25 05:46:00,
2013-11-25 01:01:00,18.3,13.5,30.22,West,270,2.2,-999.0,81,-99.99,,,0.00,Acu-Link.com,2013-11-25 06:01:00,
2013-11-25 01:16:00,18.1,13.3,30.23,WSW,247,3.2,-999.0,81,-99.99,,,0.00,Acu-Link.com,2013-11-25 06:16:00,
2013-11-25 01:31:00,18.3,13.5,30.22,West,270,1.7,-999.0,81,-99.99,,,0.00,Acu-Link.com,2013-11-25 06:31:00,
2013-11-25 01:46:00,18.3,13.5,30.23,West,270,3.7,-999.0,81,-99.99,,,0.00,Acu-Link.com,2013-11-25 06:46:00,
2013-11-25 02:01:00,18.3,13.7,30.24,NW,315,2.2,-999.0,82,-99.99,,,0.00,Acu-Link.com,2013-11-25 07:01:00,
2013-11-25 02:17:00,18.3,13.7,30.26,WNW,292,5.3,-999.0,82,-99.99,,,0.00,Acu-Link.com,2013-11-25 07:17:00,
2013-11-25 02:32:00,18.7,13.9,30.28,West,270,2.7,-999.0,81,-99.99,,,0.00,Acu-Link.com,2013-11-25 07:32:00,
2013-11-25 02:47:00,18.9,14.1,30.28,WSW,247,3.2,-999.0,81,-99.99,,,0.00,Acu-Link.com,2013-11-25 07:47:00,
2013-11-25 03:02:00,18.9,14.1,30.30,West,270,2.7,-999.0,81,-99.99,,,0.00,Acu-Link.com,2013-11-25 08:02:00,
2013-11-25 03:17:00,18.5,13.9,30.31,WNW,292,2.7,-999.0,82,-99.99,,,0.00,Acu-Link.com,2013-11-25 08:17:00,
2013-11-25 03:32:00,18.3,13.5,30.31,West,270,2.2,-999.0,81,-99.99,,,0.00,Acu-Link.com,2013-11-25 08:32:00,
2013-11-25 03:47:00,18.0,13.5,30.32,WSW,247,2.7,-999.0,82,-99.99,,,0.00,Acu-Link.com,2013-11-25 08:47:00,
2013-11-25 04:02:00,17.8,13.3,30.33,West,270,2.2,-999.0,82,-99.99,,,0.00,Acu-Link.com,2013-11-25 09:02:00,
2013-11-25 04:17:00,17.6,13.1,30.33,WNW,292,2.7,-999.0,82,-99.99,,,0.00,Acu-Link.com,2013-11-25 09:17:00,
2013-11-25 04:33:00,17.2,12.4,30.34,West,270,2.7,-999.0,81,-99.99,,,0.00,Acu-Link.com,2013-11-25 09:33:00,
2013-11-25 04:48:00,17.1,12.3,30.35,West,270,4.7,-999.0,81,-99.99,,,0.00,Acu-Link.com,2013-11-25 09:48:00,
2013-11-25 05:03:00,17.1,12.0,30.35,WSW,247,4.2,-999.0,80,-99.99,,,0.00,Acu-Link.com,2013-11-25 10:03:00,
2013-11-25 05:18:00,16.9,11.8,30.36,SW,225,5.8,-999.0,80,-99.99,,,0.00,Acu-Link.com,2013-11-25 10:18:00,
2013-11-25 05:33:00,16.9,11.8,30.36,WSW,247,3.2,-999.0,80,-99.99,,,0.00,Acu-Link.com,2013-11-25 10:33:00,
2013-11-25 05:48:00,16.5,11.1,30.37,SW,225,2.7,-999.0,79,-99.99,,,0.00,Acu-Link.com,2013-11-25 10:48:00,
2013-11-25 06:03:00,16.3,11.2,30.37,West,270,2.2,-999.0,80,-99.99,,,0.00,Acu-Link.com,2013-11-25 11:03:00,
2013-11-25 06:18:00,16.3,11.2,30.36,West,270,1.7,-999.0,80,-99.99,,,0.00,Acu-Link.com,2013-11-25 11:18:00,
2013-11-25 06:33:00,16.2,11.1,30.37,WNW,292,2.2,-999.0,80,-99.99,,,0.00,Acu-Link.com,2013-11-25 11:33:00,
2013-11-25 06:48:00,16.2,10.9,30.37,West,270,1.7,-999.0,79,-99.99,,,0.00,Acu-Link.com,2013-11-25 11:48:00,
2013-11-25 07:04:00,16.2,10.9,30.36,WNW,292,3.7,-999.0,79,-99.99,,,0.00,Acu-Link.com,2013-11-25 12:04:00,
2013-11-25 07:19:00,15.8,10.5,30.37,SSW,202,1.7,-999.0,79,-99.99,,,0.00,Acu-Link.com,2013-11-25 12:19:00,
2013-11-25 07:34:00,16.0,10.9,30.38,West,270,2.2,-999.0,80,-99.99,,,0.00,Acu-Link.com,2013-11-25 12:34:00,
2013-11-25 07:49:00,16.5,11.1,30.38,West,270,2.7,-999.0,79,-99.99,,,0.00,Acu-Link.com,2013-11-25 12:49:00,
2013-11-25 08:04:00,17.1,10.6,30.38,WSW,247,2.2,-999.0,75,-99.99,,,0.00,Acu-Link.com,2013-11-25 13:04:00,
2013-11-25 08:19:00,17.8,10.9,30.37,WNW,292,3.7,-999.0,74,-99.99,,,0.00,Acu-Link.com,2013-11-25 13:19:00,
2013-11-25 08:34:00,19.2,11.4,30.38,West,270,3.7,-999.0,71,-99.99,,,0.00,Acu-Link.com,2013-11-25 13:34:00,
2013-11-25 08:49:00,20.5,11.3,30.38,WSW,247,4.2,-999.0,67,-99.99,,,0.00,Acu-Link.com,2013-11-25 13:49:00,
2013-11-25 09:04:00,21.2,11.6,30.38,NNE,22,3.7,-999.0,66,-99.99,,,0.00,Acu-Link.com,2013-11-25 14:04:00,
2013-11-25 09:20:00,21.9,11.3,30.38,SW,225,2.7,-999.0,63,-99.99,,,0.00,Acu-Link.com,2013-11-25 14:20:00,
2013-11-25 09:35:00,22.3,12.0,30.38,NW,315,3.7,-999.0,64,-99.99,,,0.00,Acu-Link.com,2013-11-25 14:35:00,
2013-11-25 09:50:00,22.8,12.1,30.38,WNW,292,4.2,-999.0,63,-99.99,,,0.00,Acu-Link.com,2013-11-25 14:50:00,
2013-11-25 10:05:00,23.2,11.8,30.38,NNW,337,3.7,-999.0,61,-99.99,,,0.00,Acu-Link.com,2013-11-25 15:05:00,
2013-11-25 10:20:00,25.0,12.3,30.37,WNW,292,10.4,-999.0,58,-99.99,,,0.00,Acu-Link.com,2013-11-25 15:20:00,
2013-11-25 10:36:00,26.6,12.6,30.36,SSW,202,3.2,-999.0,55,-99.99,,,0.00,Acu-Link.com,2013-11-25 15:36:00,
2013-11-25 10:51:00,25.9,12.4,30.35,South,180,3.7,-999.0,56,-99.99,,,0.00,Acu-Link.com,2013-11-25 15:51:00,
2013-11-25 11:06:00,27.0,13.0,30.34,West,270,6.3,-999.0,55,-99.99,,,0.00,Acu-Link.com,2013-11-25 16:06:00,
2013-11-25 11:21:00,28.6,13.7,30.33,NW,315,3.7,-999.0,53,-99.99,,,0.00,Acu-Link.com,2013-11-25 16:21:00,
2013-11-25 11:36:00,29.3,13.4,30.32,NNE,22,4.2,-999.0,51,-99.99,,,0.00,Acu-Link.com,2013-11-25 16:36:00,
2013-11-25 11:51:00,30.4,13.1,30.30,SSW,202,4.2,-999.0,48,-99.99,,,0.00,Acu-Link.com,2013-11-25 16:51:00,
2013-11-25 12:06:00,28.9,11.7,30.29,SSW,202,4.7,-999.0,48,-99.99,,,0.00,Acu-Link.com,2013-11-25 17:06:00,
2013-11-25 12:21:00,29.5,11.8,30.29,East,90,5.3,-999.0,47,-99.99,,,0.00,Acu-Link.com,2013-11-25 17:21:00,
2013-11-25 12:36:00,30.4,12.1,30.28,SW,225,4.2,-999.0,46,-99.99,,,0.00,Acu-Link.com,2013-11-25 17:36:00,
2013-11-25 12:51:00,29.5,10.8,30.27,West,270,11.9,-999.0,45,-99.99,,,0.00,Acu-Link.com,2013-11-25 17:51:00,
2013-11-25 13:07:00,29.7,11.5,30.25,West,270,7.8,-999.0,46,-99.99,,,0.00,Acu-Link.com,2013-11-25 18:07:00,
2013-11-25 13:22:00,28.9,10.8,30.24,West,270,1.7,-999.0,46,-99.99,,,0.00,Acu-Link.com,2013-11-25 18:22:00,
2013-11-25 13:37:00,29.3,11.6,30.24,WNW,292,5.8,-999.0,47,-99.99,,,0.00,Acu-Link.com,2013-11-25 18:37:00,
2013-11-25 13:52:00,30.4,11.6,30.23,West,270,3.7,-999.0,45,-99.99,,,0.00,Acu-Link.com,2013-11-25 18:52:00,
2013-11-25 14:07:00,30.7,11.9,30.19,WNW,292,3.2,-999.0,45,-99.99,,,0.00,Acu-Link.com,2013-11-25 19:07:00,
2013-11-25 14:22:00,31.3,11.9,30.16,NNE,22,1.7,-999.0,44,-99.99,,,0.00,Acu-Link.com,2013-11-25 19:22:00,
2013-11-25 14:37:00,32.4,12.9,30.12,SW,225,2.7,-999.0,44,-99.99,,,0.00,Acu-Link.com,2013-11-25 19:37:00,
2013-11-25 14:52:00,32.0,12.6,30.11,ENE,67,0.0,-999.0,44,-99.99,,,0.00,Acu-Link.com,2013-11-25 19:52:00,
2013-11-25 15:07:00,32.9,12.4,30.10,SSW,202,2.2,-999.0,42,-99.99,,,0.00,Acu-Link.com,2013-11-25 20:07:00,
2013-11-25 15:23:00,32.4,12.9,30.10,ESE,112,2.7,-999.0,44,-99.99,,,0.00,Acu-Link.com,2013-11-25 20:23:00,
2013-11-25 15:38:00,32.2,13.3,30.11,East,90,2.7,-999.0,45,-99.99,,,0.00,Acu-Link.com,2013-11-25 20:38:00,
2013-11-25 15:53:00,32.7,10.5,30.10,SSW,202,4.2,-999.0,39,-99.99,,,0.00,Acu-Link.com,2013-11-25 20:53:00,
2013-11-25 16:08:00,32.7,10.5,30.08,South,180,1.7,-999.0,39,-99.99,,,0.00,Acu-Link.com,2013-11-25 21:08:00,
2013-11-25 16:23:00,32.4,9.7,30.09,SSW,202,3.7,-999.0,38,-99.99,,,0.00,Acu-Link.com,2013-11-25 21:23:00,
2013-11-25 16:38:00,31.8,9.1,30.10,SW,225,1.1,-999.0,38,-99.99,,,0.00,Acu-Link.com,2013-11-25 21:38:00,
2013-11-25 16:53:00,31.6,8.9,30.10,South,180,4.7,-999.0,38,-99.99,,,0.00,Acu-Link.com,2013-11-25 21:53:00,
2013-11-25 17:08:00,31.6,9.5,30.11,South,180,0.0,-999.0,39,-99.99,,,0.00,Acu-Link.com,2013-11-25 22:08:00,
2013-11-25 17:24:00,31.3,10.4,30.11,NNW,337,0.0,-999.0,41,-99.99,,,0.00,Acu-Link.com,2013-11-25 22:24:00,
2013-11-25 17:39:00,31.1,11.2,30.12,WNW,292,1.7,-999.0,43,-99.99,,,0.00,Acu-Link.com,2013-11-25 22:39:00,
2013-11-25 17:54:00,31.1,10.7,30.13,South,180,1.1,-999.0,42,-99.99,,,0.00,Acu-Link.com,2013-11-25 22:54:00,
2013-11-25 18:09:00,31.8,9.7,30.13,NNE,22,2.7,-999.0,39,-99.99,,,0.00,Acu-Link.com,2013-11-25 23:09:00,
2013-11-25 18:25:00,31.6,10.1,30.14,West,270,1.7,-999.0,40,-99.99,,,0.00,Acu-Link.com,2013-11-25 23:25:00,
2013-11-25 18:40:00,31.8,10.3,30.15,WSW,247,2.7,-999.0,40,-99.99,,,0.00,Acu-Link.com,2013-11-25 23:40:00,
2013-11-25 18:55:00,31.8,9.7,30.15,NNW,337,4.2,-999.0,39,-99.99,,,0.00,Acu-Link.com,2013-11-25 23:55:00,
2013-11-25 19:10:00,32.0,10.4,30.15,SSW,202,2.2,-999.0,40,-99.99,,,0.00,Acu-Link.com,2013-11-26 00:10:00,
2013-11-25 19:25:00,32.0,9.9,30.15,South,180,3.7,-999.0,39,-99.99,,,0.00,Acu-Link.com,2013-11-26 00:25:00,
2013-11-25 19:40:00,32.2,10.1,30.14,WSW,247,1.1,-999.0,39,-99.99,,,0.00,Acu-Link.com,2013-11-26 00:40:00,
2013-11-25 19:55:00,32.2,10.6,30.14,NNE,22,4.7,-999.0,40,-99.99,,,0.00,Acu-Link.com,2013-11-26 00:55:00,
2013-11-25 20:10:00,32.2,10.6,30.13,West,270,2.7,-999.0,40,-99.99,,,0.00,Acu-Link.com,2013-11-26 01:10:00,
2013-11-25 20:26:00,32.2,10.6,30.13,East,90,0.0,-999.0,40,-99.99,,,0.00,Acu-Link.com,2013-11-26 01:26:00,
2013-11-25 20:41:00,32.7,9.9,30.12,East,90,2.2,-999.0,38,-99.99,,,0.00,Acu-Link.com,2013-11-26 01:41:00,
2013-11-25 20:56:00,32.9,10.1,30.12,West,270,0.0,-999.0,38,-99.99,,,0.00,Acu-Link.com,2013-11-26 01:56:00,
2013-11-25 21:11:00,32.9,10.1,30.09,North,0,2.2,-999.0,38,-99.99,,,0.00,Acu-Link.com,2013-11-26 02:11:00,
2013-11-25 21:26:00,32.7,11.1,30.06,West,270,3.2,-999.0,40,-99.99,,,0.00,Acu-Link.com,2013-11-26 02:26:00,
2013-11-25 21:42:00,32.7,9.9,30.06,West,270,5.8,-999.0,38,-99.99,,,0.00,Acu-Link.com,2013-11-26 02:42:00,
2013-11-25 21:57:00,32.7,10.5,30.05,West,270,2.7,-999.0,39,-99.99,,,0.00,Acu-Link.com,2013-11-26 02:57:00,
2013-11-25 22:12:00,32.9,10.1,30.04,SSW,202,1.7,-999.0,38,-99.99,,,0.00,Acu-Link.com,2013-11-26 03:12:00,
2013-11-25 22:27:00,32.7,10.5,30.03,WNW,292,3.7,-999.0,39,-99.99,,,0.00,Acu-Link.com,2013-11-26 03:27:00,
2013-11-25 22:42:00,32.7,10.5,30.04,West,270,4.7,-999.0,39,-99.99,,,0.00,Acu-Link.com,2013-11-26 03:42:00,
2013-11-25 22:57:00,32.9,10.7,30.06,West,270,4.7,-999.0,39,-99.99,,,0.00,Acu-Link.com,2013-11-26 03:57:00,
2013-11-25 23:12:00,32.9,10.7,30.07,WNW,292,5.3,-999.0,39,-99.99,,,0.00,Acu-Link.com,2013-11-26 04:12:00,
2013-11-25 23:27:00,32.9,11.3,30.07,West,270,4.7,-999.0,40,-99.99,,,0.00,Acu-Link.com,2013-11-26 04:27:00,
2013-11-25 23:42:00,32.9,11.8,30.08,West,270,2.7,-999.0,41,-99.99,,,0.00,Acu-Link.com,2013-11-26 04:42:00,
2013-11-25 23:58:00,32.7,11.6,30.08,WNW,292,5.3,-999.0,41,-99.99,,,0.00,Acu-Link.com,2013-11-26 04:58:00,